Location: Irma
(52.9170°N, 111.2330°W)
Time: 01:08:41
(UTC-07:00)

Amateur Radio Satellites - All Passes

Search period start: 14 February 2016 00:38
Search period end: 15 February 2016 00:38
Location: Irma, 52.9170°N, 111.2330°W

Satellite Date Start Highest point End Downlink Frequencies (MHz)
Time Altitude Azimuth
BEESAT 14 Feb 00:40:53 00:45:17 38° 64° (ENE) 00:49:43 436.000
POPSAT HIP 1 14 Feb 00:58:59 01:02:48 34° 295° (WNW) 01:06:36 437.405
TISAT 1 14 Feb 00:59:02 01:02:58 38° 262° (W) 01:06:56 437.305
DUCHIFAT 1 14 Feb 01:00:04 01:03:53 35° 295° (WNW) 01:07:42 145.980
AIST 2 14 Feb 01:00:24 01:04:12 32° 32° (NNE) 01:07:58 435.215
NANOSAT C BR1 14 Feb 01:00:46 01:04:34 33° 295° (WNW) 01:08:20 145.865
JAS-2 14 Feb 01:03:43 01:07:42 20° 86° (E) 01:11:30 435.910
KKS-1 14 Feb 01:08:27 01:10:49 14° 53° (NE) 01:13:09 437.445
SPROUT 14 Feb 01:09:39 01:12:11 15° 272° (W) 01:14:43 437.525
QB50P1 14 Feb 01:11:23 01:14:57 27° 297° (WNW) 01:18:29 145.935-145.965
BEESAT 3 14 Feb 01:12:39 01:16:15 33° 238° (WSW) 01:19:48 437.485
UNISAT 6 14 Feb 01:13:52 01:15:05 11° 309° (NW) 01:16:17 437.425
Oscar 19 14 Feb 01:14:14 01:18:44 29° 94° (E) 01:23:11 437.125/150
DANDE 14 Feb 01:15:52 01:23:30 42° 88° (E) 01:31:07 436.750
YUBILEINY 14 Feb 01:16:37 01:22:11 19° 71° (ENE) 01:27:45 435.215
SWISSCUBE 14 Feb 01:33:25 01:38:12 77° 255° (WSW) 01:43:02 437.505
MOZHAYETS 4 14 Feb 01:36:15 01:37:56 12° 50° (NE) 01:39:39
BUGSAT 1 14 Feb 01:42:18 01:45:37 25° 298° (WNW) 01:48:54 437.445
BEESAT 2 14 Feb 01:45:29 01:48:49 25° 241° (WSW) 01:52:08 435.950
CUSAT 1 14 Feb 01:45:31 01:53:42 83° 101° (E) 02:01:12 437.405
POLYITAN 1 14 Feb 02:07:59 02:08:55 11° 309° (NW) 02:09:51 437.675
QB50P2 14 Feb 02:08:37 02:09:19 10° 310° (NW) 02:10:01 145.880/145.840
ITUPSAT 1 14 Feb 02:13:13 02:17:44 40° 263° (W) 02:22:16 437.325
STARS 14 Feb 02:13:34 02:17:17 28° 62° (ENE) 02:21:01 437.465
Cosmos 2491 14 Feb 02:13:59 02:22:47 86° 263° (W) 02:31:35 435.465 / 435.565
BEESAT 14 Feb 02:18:45 02:23:08 35° 264° (W) 02:27:33 436.000
Gurwin Techsat 1B 14 Feb 02:22:12 02:27:19 45° 98° (E) 02:32:24 435.225
ITAMSAT 1 14 Feb 02:33:12 02:37:52 31° 94° (E) 02:42:29 435.822/435.867
AIST 2 14 Feb 02:38:51 02:42:56 56° 233° (SW) 02:46:58 435.215
KKS-1 14 Feb 02:42:14 02:46:41 78° 74° (ENE) 02:51:10 437.445
JAS-2 14 Feb 02:47:56 02:53:40 77° 289° (WNW) 02:58:55 435.910
Oscar 19 14 Feb 02:53:20 02:58:19 50° 293° (WNW) 03:03:15 437.125/150
DANDE 14 Feb 02:57:56 03:06:15 64° 289° (WNW) 03:14:28 436.750
YUBILEINY 14 Feb 03:08:37 03:17:20 70° 95° (E) 03:26:08 435.215
MOZHAYETS 4 14 Feb 03:09:43 03:14:14 60° 70° (ENE) 03:18:48
SWISSCUBE 14 Feb 03:14:50 03:16:51 12° 275° (W) 03:18:53 437.505
CUSAT 1 14 Feb 03:29:40 03:36:43 32° 300° (WNW) 03:43:10 437.405
Cosmos 2504 14 Feb 03:40:25 03:47:48 32° 80° (E) 03:55:17 435.465 / 435.565
SO-50 14 Feb 03:44:39 03:48:28 23° 115° (ESE) 03:52:19 436.795
STARS 14 Feb 03:49:18 03:53:30 44° 261° (W) 03:57:44 437.465
AO-7 14 Feb 03:51:35 03:59:29 44° 98° (E) 04:07:17 29.400- 29.500
HORYU 2 14 Feb 03:55:24 03:58:25 18° 90° (E) 04:01:25 437.375
Gurwin Techsat 1B 14 Feb 04:02:23 04:07:13 36° 298° (WNW) 04:12:03 435.225
CUBESAT XI-V 14 Feb 04:03:58 04:08:03 30° 62° (ENE) 04:12:08 437.345
M-CUBED/EXP-1 PRIME 14 Feb 04:07:59 04:09:55 14° 98° (E) 04:11:53 437.505
Cosmos 2491 14 Feb 04:11:55 04:18:25 24° 285° (WNW) 04:24:58 435.465 / 435.565
ITAMSAT 1 14 Feb 04:12:30 04:17:34 50° 294° (WNW) 04:22:36 435.822/435.867
AUBIESAT-1 14 Feb 04:13:30 04:15:24 14° 98° (E) 04:17:21 437.475
KKS-1 14 Feb 04:21:06 04:23:50 16° 272° (W) 04:26:35 437.445
JAS-2 14 Feb 04:34:09 04:37:49 18° 313° (NW) 04:41:18 435.910
Oscar 19 14 Feb 04:34:45 04:36:33 12° 315° (NW) 04:38:21 437.125/150
DANDE 14 Feb 04:44:34 04:50:51 22° 311° (NW) 04:56:57 436.750
MOZHAYETS 4 14 Feb 04:48:20 04:51:49 21° 270° (W) 04:55:19
STRAND 1 14 Feb 05:02:37 05:06:28 22° 55° (NE) 05:10:20 437.568
YUBILEINY 14 Feb 05:06:53 05:14:54 37° 299° (WNW) 05:22:59 435.215
CUSAT 1 14 Feb 05:20:22 05:21:27 10° 324° (NW) 05:22:31 437.405
SO-50 14 Feb 05:23:33 05:28:30 80° 316° (NW) 05:33:30 436.795
HORYU 2 14 Feb 05:31:02 05:35:29 70° 288° (WNW) 05:39:55 437.375
Cosmos 2504 14 Feb 05:31:37 05:40:25 79° 283° (WNW) 05:49:24 435.465 / 435.565
CUBESAT XI-V 14 Feb 05:40:44 05:45:17 46° 262° (W) 05:49:51 437.345
M-CUBED/EXP-1 PRIME 14 Feb 05:41:32 05:44:53 59° 295° (WNW) 05:48:25 437.505
AO-7 14 Feb 05:44:27 05:52:36 60° 301° (WNW) 06:00:41 29.400- 29.500
AUBIESAT-1 14 Feb 05:46:55 05:50:20 63° 294° (WNW) 05:53:56 437.475
ITAMSAT 1 14 Feb 05:54:00 05:55:55 12° 315° (NW) 05:57:50 435.822/435.867
LilacSat-2 14 Feb 06:07:36 06:10:40 23° 93° (E) 06:13:42 437.200
O/OREOS (USA 219) 14 Feb 06:17:11 06:18:41 11° 97° (E) 06:20:10 437.305
CUTE-I 14 Feb 06:25:07 06:30:13 41° 97° (E) 06:35:17 437.470
STRAND 1 14 Feb 06:39:59 06:45:07 79° 254° (WSW) 06:50:19 437.568
Cubesat XI-IV 14 Feb 06:40:20 06:45:38 53° 100° (E) 06:50:54 437.490
PRISM 14 Feb 06:43:07 06:47:03 41° 67° (ENE) 06:51:02 437.425
GONETS M04 14 Feb 06:44:00 06:48:31 15° 68° (ENE) 06:53:03
HO-68 14 Feb 06:48:26 06:49:54 11° 77° (ENE) 06:51:23 435.675
DOVE 4 14 Feb 07:04:08 07:06:37 15° 87° (E) 07:09:04 437.250
SO-50 14 Feb 07:05:24 07:09:42 29° 338° (NNW) 07:14:00 436.795
BRITE-PL 14 Feb 07:05:40 07:10:20 53° 99° (E) 07:14:39 437.365/2234.400
HORYU 2 14 Feb 07:09:14 07:11:18 13° 309° (NW) 07:13:22 437.375
YUBILEINY 14 Feb 07:11:45 07:15:12 12° 329° (NNW) 07:18:38 435.215
Cosmos 2504 14 Feb 07:28:20 07:35:24 26° 308° (NW) 07:42:33 435.465 / 435.565
AO-7 14 Feb 07:37:54 07:43:52 22° 325° (NW) 07:49:48 29.400- 29.500
LilacSat-2 14 Feb 07:41:36 07:45:09 39° 292° (WNW) 07:48:42 437.200
GOMX 1 14 Feb 07:46:24 07:50:50 67° 102° (ESE) 07:55:02 467.674
SEEDS 14 Feb 07:48:07 07:50:34 15° 87° (E) 07:52:59 437.485
CUTE 1.7 + AOD 2 14 Feb 07:50:00 07:53:08 19° 90° (E) 07:56:15 437.475
O/OREOS (USA 219) 14 Feb 07:52:46 07:57:14 75° 118° (ESE) 08:01:48 437.305
CUTE-I 14 Feb 08:05:17 08:10:17 40° 297° (WNW) 08:15:15 437.470
ANTELSAT 14 Feb 08:13:44 08:16:03 14° 54° (NE) 08:18:20 437.575/2403.000
TIGRISAT 14 Feb 08:18:42 08:21:09 15° 55° (NE) 08:23:35 435.000
PRISM 14 Feb 08:19:00 08:22:33 26° 266° (W) 08:26:07 437.425
Cubesat XI-IV 14 Feb 08:20:48 08:25:31 32° 301° (WNW) 08:30:13 437.490
STRAND 1 14 Feb 08:22:33 08:25:11 14° 275° (W) 08:27:50 437.568
UWE-3 14 Feb 08:24:27 08:25:19 11° 85° (E) 08:26:11 435.000/436.395/437.385
Cosmos 2499 14 Feb 08:27:06 08:34:24 30° 79° (E) 08:41:40 435.465 / 435.565
HO-68 14 Feb 08:32:29 08:39:29 50° 100° (E) 08:46:26 435.675
CUBEBUG 2 14 Feb 08:32:38 08:35:25 17° 89° (E) 08:38:13 437.445
GONETS M04 14 Feb 08:34:57 08:43:25 60° 92° (E) 08:51:58
CANX-2 14 Feb 08:35:18 08:39:33 54° 100° (E) 08:43:46 2200.000
DOVE 4 14 Feb 08:40:41 08:44:55 71° 287° (WNW) 08:49:03 437.250
BRITE-PL 14 Feb 08:44:40 08:48:32 25° 301° (WNW) 08:52:09 437.365/2234.400
AO-85 14 Feb 08:47:06 08:50:46 19° 110° (ESE) 08:54:29 145.980
SO-50 14 Feb 08:47:52 08:51:38 21° 2° (N) 08:55:21 436.795
CINEMA 3 14 Feb 08:58:26 09:02:35 67° 102° (ESE) 09:06:46 145.822/145.860
COMPASS 1 14 Feb 08:59:22 09:03:30 49° 99° (E) 09:07:37 437.405
QB50P1 14 Feb 09:00:52 09:02:27 12° 52° (NE) 09:04:03 145.935-145.965
UNISAT 6 14 Feb 09:03:25 09:07:17 35° 65° (ENE) 09:11:11 437.425
ZACube-1 14 Feb 09:05:24 09:08:28 19° 90° (E) 09:11:34 437.345
RS-15 14 Feb 09:10:31 09:16:22 16° 92° (E) 09:22:18 29.354- 29.394
FUNcube-1 14 Feb 09:11:42 09:14:57 21° 91° (E) 09:18:13 145.935
AIST 1 14 Feb 09:20:41 09:23:35 17° 84° (E) 09:26:30
SEEDS 14 Feb 09:22:33 09:26:50 78° 286° (WNW) 09:31:07 437.485
AAUSAT CUBESAT 2 14 Feb 09:23:10 09:27:23 71° 102° (ESE) 09:31:36 437.432
CUTE 1.7 + AOD 2 14 Feb 09:25:07 09:29:22 59° 289° (WNW) 09:33:36 437.475
GOMX 1 14 Feb 09:25:21 09:28:29 19° 303° (WNW) 09:31:31 467.674
BUGSAT 1 14 Feb 09:29:44 09:31:12 12° 53° (NE) 09:32:39 437.445
AO-7 14 Feb 09:30:51 09:33:40 12° 352° (N) 09:36:30 29.400- 29.500
O/OREOS (USA 219) 14 Feb 09:33:36 09:37:11 23° 318° (NW) 09:40:48 437.305
Oscar 11 14 Feb 09:36:34 09:40:46 44° 98° (E) 09:44:56 145.826/435.025
ANTELSAT 14 Feb 09:47:52 09:52:09 86° 78° (ENE) 09:56:27 437.575/2403.000
POLYITAN 1 14 Feb 09:52:57 09:56:39 30° 64° (ENE) 10:00:20 437.675
TIGRISAT 14 Feb 09:53:00 09:57:17 89° 259° (W) 10:01:34 435.000
QB50P2 14 Feb 09:53:16 09:57:01 31° 64° (ENE) 10:00:46 145.880/145.840
DELFI C3 14 Feb 09:57:39 10:01:31 40° 98° (E) 10:05:21 145.870
UWE-3 14 Feb 09:58:18 10:02:32 77° 105° (ESE) 10:06:50 435.000/436.395/437.385
CUBEBUG 2 14 Feb 10:08:20 10:12:30 66° 288° (WNW) 10:16:45 437.445
DANDE 14 Feb 10:08:51 10:12:05 13° 35° (NE) 10:15:03 436.750
CANX-2 14 Feb 10:11:45 10:15:08 23° 299° (WNW) 10:18:30 2200.000
HUMSAT D 14 Feb 10:16:26 10:20:09 30° 95° (E) 10:23:52 437.325/437.525
Cosmos 2499 14 Feb 10:17:48 10:26:42 83° 282° (WNW) 10:35:35 435.465 / 435.565
DOVE 4 14 Feb 10:20:20 10:21:52 12° 308° (NW) 10:23:23 437.250
HO-68 14 Feb 10:20:25 10:27:13 47° 301° (WNW) 10:34:00 435.675
POPSAT HIP 1 14 Feb 10:21:15 10:25:21 52° 69° (ENE) 10:29:29 437.405
DUCHIFAT 1 14 Feb 10:21:53 10:25:57 50° 69° (ENE) 10:30:01 145.980
PCSat 14 Feb 10:22:38 10:27:52 51° 120° (ESE) 10:33:08 145.827
NANOSAT C BR1 14 Feb 10:22:43 10:26:49 53° 70° (ENE) 10:30:57 145.865
AO-85 14 Feb 10:25:07 10:30:36 79° 129° (SE) 10:36:06 145.980
SO-50 14 Feb 10:29:02 10:33:29 32° 26° (NNE) 10:37:50 436.795
GONETS M04 14 Feb 10:32:34 10:40:41 42° 296° (WNW) 10:48:56
QB50P1 14 Feb 10:33:18 10:37:30 69° 72° (ENE) 10:41:43 145.935-145.965
ESTCUBE 1 14 Feb 10:33:36 10:35:43 13° 85° (E) 10:37:48 437.505/2401.250
COMPASS 1 14 Feb 10:35:27 10:38:51 24° 299° (WNW) 10:42:14 437.405
CUSAT 1 14 Feb 10:35:39 10:39:52 19° 49° (NE) 10:43:24 437.405
CINEMA 3 14 Feb 10:36:32 10:39:21 18° 302° (WNW) 10:42:11 145.822/145.860
UNISAT 6 14 Feb 10:40:14 10:44:05 32° 265° (W) 10:47:56 437.425
ZACube-1 14 Feb 10:40:59 10:45:08 58° 289° (WNW) 10:49:22 437.345
50 SAT 14 Feb 10:45:20 10:47:32 15° 89° (E) 10:49:43 437.505
FUNcube-1 14 Feb 10:47:23 10:51:31 53° 290° (WNW) 10:55:42 145.935
AIST 1 14 Feb 10:56:20 11:00:43 65° 284° (WNW) 11:05:07
AAUSAT CUBESAT 2 14 Feb 10:59:36 11:02:27 18° 302° (WNW) 11:05:19 437.432
SEEDS 14 Feb 10:59:49 11:01:53 13° 306° (NW) 11:03:56 437.485
Oscar 19 14 Feb 11:00:15 11:03:28 17° 51° (NE) 11:06:41 437.125/150
BUGSAT 1 14 Feb 11:01:44 11:05:53 69° 71° (ENE) 11:09:59 437.445
CUTE 1.7 + AOD 2 14 Feb 11:03:24 11:04:22 11° 309° (NW) 11:05:21 437.475
VELOX 1 14 Feb 11:09:19 11:12:49 22° 92° (E) 11:16:18 145.980
UKube-1 14 Feb 11:11:39 11:14:58 21° 92° (E) 11:18:16 .
Oscar 11 14 Feb 11:13:03 11:16:45 27° 298° (WNW) 11:20:25 145.826/435.025
RS-15 14 Feb 11:15:00 11:25:49 57° 118° (ESE) 11:37:12 29.354- 29.394
YUBILEINY 14 Feb 11:15:01 11:20:11 16° 39° (NE) 11:25:19 435.215
AO-7 14 Feb 11:19:03 11:23:03 15° 20° (NNE) 11:27:04 29.400- 29.500
JAS-2 14 Feb 11:21:34 11:27:10 26° 54° (NE) 11:32:17 435.910
AISAT 14 Feb 11:26:38 11:30:38 33° 96° (E) 11:34:37 437.250
ANTELSAT 14 Feb 11:27:29 11:29:31 13° 273° (W) 11:31:34 437.575/2403.000
POLYITAN 1 14 Feb 11:28:30 11:32:25 36° 263° (W) 11:36:20 437.675
QB50P2 14 Feb 11:28:55 11:32:48 35° 263° (W) 11:36:43 145.880/145.840
CUBEBUG 1 14 Feb 11:31:31 11:35:25 31° 95° (E) 11:39:17 437.445
DX 1 14 Feb 11:32:22 11:36:26 36° 97° (E) 11:40:27 434.975-435.025
DELFI C3 14 Feb 11:32:53 11:36:17 26° 297° (WNW) 11:39:40 145.870
TIGRISAT 14 Feb 11:32:55 11:34:40 12° 274° (W) 11:36:26 435.000
UWE-3 14 Feb 11:35:51 11:38:33 17° 303° (WNW) 11:41:16 435.000/436.395/437.385
CUBEBUG 2 14 Feb 11:47:07 11:48:24 11° 307° (NW) 11:49:42 437.445
DANDE 14 Feb 11:50:45 11:57:31 42° 62° (ENE) 12:02:45 436.750
HUMSAT D 14 Feb 11:52:01 11:55:52 36° 294° (WNW) 11:59:44 437.325/437.525
POPSAT HIP 1 14 Feb 11:58:14 12:01:28 21° 268° (W) 12:04:42 437.405
DUCHIFAT 1 14 Feb 11:58:40 12:01:56 22° 268° (W) 12:05:14 145.980
NANOSAT C BR1 14 Feb 11:59:42 12:02:54 21° 269° (W) 12:06:06 145.865
PCSat 14 Feb 12:06:15 12:11:25 43° 321° (NW) 12:16:38 145.827
AO-85 14 Feb 12:06:34 12:11:39 36° 332° (NNW) 12:16:41 145.980
ESTCUBE 1 14 Feb 12:08:41 12:13:16 85° 106° (ESE) 12:17:49 437.505/2401.250
HO-68 14 Feb 12:09:20 12:13:20 16° 324° (NW) 12:17:18 435.675
SO-50 14 Feb 12:09:34 12:14:28 79° 230° (SW) 12:19:12 436.795
Gurwin Techsat 1B 14 Feb 12:11:01 12:15:17 25° 56° (ENE) 12:19:33 435.225
QB50P1 14 Feb 12:11:04 12:13:46 16° 271° (W) 12:16:28 145.935-145.965
Cosmos 2499 14 Feb 12:14:03 12:21:17 27° 306° (NW) 12:28:29 435.465 / 435.565
CUSAT 1 14 Feb 12:17:25 12:23:22 88° 259° (WSW) 12:27:45 437.405
50 SAT 14 Feb 12:18:11 12:21:59 65° 287° (WNW) 12:25:45 437.505
ZACube-1 14 Feb 12:19:58 12:20:38 10° 309° (NW) 12:21:18 437.345
ITAMSAT 1 14 Feb 12:20:00 12:23:30 18° 52° (NE) 12:27:00 435.822/435.867
GONETS M04 14 Feb 12:36:31 12:40:39 14° 325° (NW) 12:44:49
Oscar 19 14 Feb 12:36:52 12:42:02 76° 72° (ENE) 12:47:13 437.125/150
TISAT 1 14 Feb 12:37:08 12:40:25 22° 92° (E) 12:43:41 437.305
AIST 1 14 Feb 12:38:05 12:39:17 11° 305° (NW) 12:40:28
BUGSAT 1 14 Feb 12:39:09 12:41:44 16° 271° (W) 12:44:18 437.445
VELOX 1 14 Feb 12:45:17 12:49:37 53° 291° (WNW) 12:53:54 145.980
UKube-1 14 Feb 12:47:07 12:51:22 55° 291° (WNW) 12:55:35 .
SPROUT 14 Feb 12:47:21 12:51:37 64° 102° (ESE) 12:55:50 437.525
AISAT 14 Feb 13:03:07 13:07:11 36° 295° (WNW) 13:11:12 437.250
JAS-2 14 Feb 13:04:17 13:11:39 89° 250° (WSW) 13:18:12 435.910
AO-7 14 Feb 13:06:17 13:13:22 32° 45° (NE) 13:20:27 29.400- 29.500
CUBEBUG 1 14 Feb 13:07:45 13:11:48 38° 295° (WNW) 13:15:49 437.445
DX 1 14 Feb 13:08:42 13:12:36 32° 297° (WNW) 13:16:28 434.975-435.025
YUBILEINY 14 Feb 13:11:10 13:19:45 50° 68° (ENE) 13:28:14 435.215
Cosmos 2504 14 Feb 13:24:28 13:30:30 20° 45° (NE) 13:36:17 435.465 / 435.565
RS-15 14 Feb 13:26:52 13:38:14 67° 326° (NW) 13:50:16 29.354- 29.394
SWISSCUBE 14 Feb 13:28:17 13:31:38 18° 89° (E) 13:34:57 437.505
Cosmos 2491 14 Feb 13:28:38 13:35:09 24° 76° (ENE) 13:41:40 435.465 / 435.565
DANDE 14 Feb 13:34:01 13:40:35 44° 270° (W) 13:45:38 436.750
ESTCUBE 1 14 Feb 13:46:32 13:49:32 17° 305° (NW) 13:52:30 437.505/2401.250
AO-85 14 Feb 13:49:14 13:53:35 23° 356° (N) 13:57:50 145.980
Gurwin Techsat 1B 14 Feb 13:49:31 13:54:49 70° 257° (WSW) 14:00:10 435.225
SO-50 14 Feb 13:51:23 13:54:13 16° 249° (WSW) 13:57:00 436.795
PCSat 14 Feb 13:52:12 13:56:13 20° 346° (NNW) 14:00:15 145.827
ITAMSAT 1 14 Feb 13:57:04 14:02:17 83° 71° (ENE) 14:07:32 435.822/435.867
CUSAT 1 14 Feb 14:01:26 14:04:18 14° 285° (WNW) 14:06:49 437.405
ITUPSAT 1 14 Feb 14:07:16 14:11:41 34° 96° (E) 14:16:04 437.325
BEESAT 14 Feb 14:12:12 14:16:42 38° 97° (E) 14:21:10 436.000
TISAT 1 14 Feb 14:12:19 14:16:23 49° 291° (WNW) 14:20:24 437.305
Oscar 19 14 Feb 14:18:14 14:21:58 20° 271° (W) 14:25:42 437.125/150
SPROUT 14 Feb 14:24:07 14:27:12 20° 302° (WNW) 14:30:17 437.525
VELOX 1 14 Feb 14:24:34 14:25:10 10° 312° (NW) 14:25:46 145.980
UKube-1 14 Feb 14:25:50 14:26:32 10° 311° (NW) 14:27:13 .
O/OREOS (USA 219) 14 Feb 14:38:52 14:41:48 16° 35° (NE) 14:44:45 437.305
ISS 14 Feb 14:42:00 14:44:18 18° 145° (SE) 14:46:34 145.825
JAS-2 14 Feb 14:51:57 14:57:24 22° 272° (W) 15:02:30 435.910
AO-7 14 Feb 14:56:57 15:05:21 89° 247° (WSW) 15:13:47 29.400- 29.500
HORYU 2 14 Feb 14:58:53 15:02:51 34° 64° (ENE) 15:06:51 437.375
M-CUBED/EXP-1 PRIME 14 Feb 15:00:07 15:03:28 55° 65° (ENE) 15:06:42 437.505
AUBIESAT-1 14 Feb 15:05:07 15:08:27 52° 64° (ENE) 15:11:42 437.475
SWISSCUBE 14 Feb 15:05:10 15:10:00 75° 288° (WNW) 15:14:48 437.505
YUBILEINY 14 Feb 15:08:15 15:16:41 51° 272° (W) 15:25:03 435.215
Cosmos 2504 14 Feb 15:17:26 15:26:04 62° 72° (ENE) 15:34:05 435.465 / 435.565
Cosmos 2491 14 Feb 15:22:05 15:30:49 87° 99° (E) 15:39:35 435.465 / 435.565
AO-85 14 Feb 15:30:56 15:35:40 29° 20° (NNE) 15:40:11 145.980
STARS 14 Feb 15:32:55 15:36:19 22° 92° (E) 15:39:42 437.465
Gurwin Techsat 1B 14 Feb 15:33:33 15:35:47 13° 277° (W) 15:38:02 435.225
PCSat 14 Feb 15:37:35 15:41:34 20° 13° (NNE) 15:45:33 145.827
ITAMSAT 1 14 Feb 15:38:54 15:42:26 18° 272° (W) 15:46:00 435.822/435.867
RS-15 14 Feb 15:41:51 15:53:03 47° 358° (N) 16:04:46 29.354- 29.394
BEESAT 2 14 Feb 15:44:59 15:46:37 12° 111° (ESE) 15:48:16 435.950
ITUPSAT 1 14 Feb 15:45:06 15:49:36 40° 296° (WNW) 15:54:06 437.325
BEESAT 14 Feb 15:50:06 15:54:30 36° 296° (WNW) 15:58:52 436.000
KKS-1 14 Feb 16:03:35 16:08:01 67° 103° (ESE) 16:12:25 437.445
CUTE-I 14 Feb 16:14:40 16:18:54 24° 56° (NE) 16:23:08 437.470
ISS 14 Feb 16:17:05 16:20:16 52° 164° (SSE) 16:23:27 145.825
O/OREOS (USA 219) 14 Feb 16:17:32 16:22:07 66° 57° (ENE) 16:26:42 437.305
Cubesat XI-IV 14 Feb 16:29:37 16:34:13 30° 59° (ENE) 16:38:50 437.490
HORYU 2 14 Feb 16:35:22 16:39:25 35° 263° (W) 16:43:32 437.375
MOZHAYETS 4 14 Feb 16:35:32 16:40:11 63° 101° (E) 16:44:48
M-CUBED/EXP-1 PRIME 14 Feb 16:36:35 16:38:27 14° 262° (W) 16:40:17 437.505
GONETS M04 14 Feb 16:41:18 16:45:42 14° 36° (NE) 16:50:05
AUBIESAT-1 14 Feb 16:41:20 16:43:20 15° 262° (W) 16:45:20 437.475
SWISSCUBE 14 Feb 16:44:19 16:47:03 15° 309° (NW) 16:49:46 437.505
BRITE-PL 14 Feb 16:44:31 16:48:51 24° 59° (ENE) 16:53:00 437.365/2234.400
BEESAT 3 14 Feb 16:45:55 16:49:50 56° 128° (SE) 16:53:46 437.485
AO-7 14 Feb 16:52:35 16:59:15 26° 271° (W) 17:05:58 29.400- 29.500
LilacSat-2 14 Feb 16:55:27 16:58:43 28° 65° (ENE) 17:01:59 437.200
YUBILEINY 14 Feb 17:07:56 17:11:13 13° 296° (WNW) 17:14:29 435.215
STARS 14 Feb 17:08:44 17:13:01 54° 291° (WNW) 17:17:17 437.465
Cosmos 2504 14 Feb 17:11:20 17:19:05 39° 277° (W) 17:26:22 435.465 / 435.565
AO-85 14 Feb 17:11:39 17:17:01 76° 44° (NE) 17:21:58 145.980
BEESAT 2 14 Feb 17:19:48 17:23:50 76° 131° (SE) 17:27:53 435.950
PCSat 14 Feb 17:21:15 17:26:24 41° 37° (NE) 17:31:32 145.827
Cosmos 2491 14 Feb 17:21:33 17:28:54 29° 304° (NW) 17:36:17 435.465 / 435.565
HO-68 14 Feb 17:22:26 17:27:34 22° 43° (NE) 17:32:43 435.675
GOMX 1 14 Feb 17:22:56 17:27:05 25° 61° (ENE) 17:31:04 467.674
CUBESAT XI-V 14 Feb 17:31:11 17:35:20 30° 94° (E) 17:39:27 437.345
KKS-1 14 Feb 17:40:57 17:44:11 20° 303° (WNW) 17:47:26 437.445
CUTE-I 14 Feb 17:53:09 17:58:30 73° 256° (WSW) 18:03:53 437.470
ISS 14 Feb 17:53:19 17:56:34 70° 185° (S) 17:59:48 145.825
RS-15 14 Feb 17:56:14 18:08:06 62° 30° (NNE) 18:20:20 29.354- 29.394
O/OREOS (USA 219) 14 Feb 17:57:43 18:01:06 20° 258° (WSW) 18:04:28 437.305
CANX-2 14 Feb 18:00:35 18:02:44 14° 54° (NE) 18:04:54 2200.000
Cubesat XI-IV 14 Feb 18:08:48 18:14:03 56° 259° (W) 18:19:21 437.490
Cosmos 2499 14 Feb 18:09:53 18:15:23 18° 43° (NE) 18:20:39 435.465 / 435.565
MOZHAYETS 4 14 Feb 18:13:23 18:17:00 23° 301° (WNW) 18:20:36
DOVE 4 14 Feb 18:14:28 18:18:50 35° 65° (ENE) 18:23:00 437.250
AIST 2 14 Feb 18:19:47 18:23:41 40° 124° (ESE) 18:27:37 435.215
BRITE-PL 14 Feb 18:21:17 18:26:54 75° 257° (WSW) 18:32:14 437.365/2234.400
COMPASS 1 14 Feb 18:23:22 18:25:05 12° 53° (NE) 18:26:48 437.405
BEESAT 3 14 Feb 18:24:14 18:27:50 31° 329° (NNW) 18:31:26 437.485
LilacSat-2 14 Feb 18:29:33 18:33:00 32° 264° (W) 18:36:28 437.200
CINEMA 3 14 Feb 18:30:21 18:33:30 20° 59° (ENE) 18:36:34 145.822/145.860
GONETS M04 14 Feb 18:37:15 18:45:35 43° 65° (ENE) 18:53:53
STRAND 1 14 Feb 18:44:49 18:48:55 23° 91° (E) 18:52:59 437.568
SEEDS 14 Feb 18:45:28 18:48:46 23° 61° (ENE) 18:52:05 437.485
AAUSAT CUBESAT 2 14 Feb 18:45:45 18:48:18 16° 56° (ENE) 18:50:51 437.432
STARS 14 Feb 18:47:49 18:48:29 10° 311° (NW) 18:49:09 437.465
CUTE 1.7 + AOD 2 14 Feb 18:48:19 18:52:00 29° 64° (ENE) 18:55:42 437.475
AO-85 14 Feb 18:52:53 18:57:03 25° 246° (WSW) 19:00:58 145.980
BEESAT 2 14 Feb 18:58:40 19:02:08 27° 332° (NNW) 19:05:37 435.950
GOMX 1 14 Feb 18:59:42 19:04:53 63° 259° (WSW) 19:09:47 467.674
Oscar 11 14 Feb 19:03:54 19:05:48 13° 53° (NE) 19:07:41 145.826/435.025
PCSat 14 Feb 19:04:43 19:10:02 54° 239° (WSW) 19:15:18 145.827
HO-68 14 Feb 19:07:02 19:14:09 68° 66° (ENE) 19:21:19 435.675
CUBESAT XI-V 14 Feb 19:08:25 19:12:53 43° 293° (WNW) 19:17:19 437.345
UWE-3 14 Feb 19:26:20 19:29:18 19° 59° (ENE) 19:32:15 435.000/436.395/437.385
ISS 14 Feb 19:29:47 19:32:47 35° 204° (SSW) 19:35:46 145.825
CANX-2 14 Feb 19:33:43 19:37:57 82° 72° (ENE) 19:42:13 2200.000
CUBEBUG 2 14 Feb 19:36:25 19:40:04 29° 64° (ENE) 19:43:41 437.445
CUTE-I 14 Feb 19:36:59 19:39:32 13° 276° (W) 19:42:05 437.470
DOVE 4 14 Feb 19:51:59 19:56:32 38° 263° (W) 20:00:52 437.250
PRISM 14 Feb 19:54:07 19:57:47 28° 95° (E) 20:01:24 437.425
COMPASS 1 14 Feb 19:55:47 19:59:56 73° 73° (ENE) 20:04:09 437.405
AIST 2 14 Feb 19:58:15 20:02:14 41° 324° (NW) 20:06:12 435.215
Cosmos 2499 14 Feb 20:02:28 20:10:49 58° 71° (ENE) 20:18:29 435.465 / 435.565
BRITE-PL 14 Feb 20:03:10 20:06:11 15° 276° (W) 20:09:07 437.365/2234.400
BEESAT 3 14 Feb 20:04:13 20:06:43 16° 352° (N) 20:09:12 437.485
CINEMA 3 14 Feb 20:05:53 20:10:18 66° 258° (WSW) 20:14:35 145.822/145.860
ZACube-1 14 Feb 20:06:58 20:10:39 31° 64° (ENE) 20:14:18 437.345
RS-15 14 Feb 20:09:09 20:21:02 66° 238° (WSW) 20:33:08 29.354- 29.394
FUNcube-1 14 Feb 20:13:01 20:16:44 33° 66° (ENE) 20:20:29 145.935
AAUSAT CUBESAT 2 14 Feb 20:19:07 20:23:16 81° 256° (WSW) 20:27:29 437.432
SEEDS 14 Feb 20:20:06 20:24:12 52° 260° (W) 20:28:22 437.485
STRAND 1 14 Feb 20:23:25 20:28:33 65° 291° (WNW) 20:33:40 437.568
CUTE 1.7 + AOD 2 14 Feb 20:23:49 20:27:46 38° 263° (W) 20:31:46 437.475
GONETS M04 14 Feb 20:34:14 20:42:49 59° 269° (W) 20:51:24
Oscar 11 14 Feb 20:36:54 20:41:11 72° 73° (ENE) 20:45:31 145.826/435.025
BEESAT 2 14 Feb 20:38:48 20:41:16 15° 356° (N) 20:43:43 435.950
GOMX 1 14 Feb 20:42:39 20:43:52 11° 277° (W) 20:45:04 467.674
DELFI C3 14 Feb 20:49:30 20:53:24 54° 70° (ENE) 20:57:21 145.870
PCSat 14 Feb 20:51:26 20:52:16 10° 259° (W) 20:53:06 145.827
HO-68 14 Feb 20:56:06 21:02:25 33° 267° (W) 21:08:48 435.675
AISAT 14 Feb 20:56:41 20:58:20 12° 50° (NE) 20:59:57 437.250
AIST 1 14 Feb 20:57:03 21:01:23 60° 76° (ENE) 21:05:38
DX 1 14 Feb 21:00:23 21:02:18 13° 51° (NE) 21:04:14 434.975-435.025
CUBEBUG 1 14 Feb 21:01:04 21:01:53 10° 49° (NE) 21:02:42 437.445
UWE-3 14 Feb 21:01:16 21:05:25 62° 259° (WSW) 21:09:33 435.000/436.395/437.385
CANX-2 14 Feb 21:12:13 21:14:25 14° 274° (W) 21:16:39 2200.000
CUBEBUG 2 14 Feb 21:12:43 21:16:39 37° 263° (W) 21:20:33 437.445
HUMSAT D 14 Feb 21:13:30 21:17:22 44° 69° (ENE) 21:21:18 437.325/437.525
PRISM 14 Feb 21:29:19 21:33:13 38° 294° (WNW) 21:37:04 437.425
50 SAT 14 Feb 21:31:16 21:33:54 19° 60° (ENE) 21:36:34 437.505
COMPASS 1 14 Feb 21:33:34 21:36:02 15° 272° (W) 21:38:33 437.405
ANTELSAT 14 Feb 21:35:05 21:36:47 12° 86° (E) 21:38:29 437.575/2403.000
ESTCUBE 1 14 Feb 21:38:15 21:41:58 26° 60° (ENE) 21:45:43 437.505/2401.250
AIST 2 14 Feb 21:38:50 21:41:44 18° 347° (NNW) 21:44:39 435.215
TIGRISAT 14 Feb 21:39:48 21:41:45 13° 86° (E) 21:43:41 435.000
BEESAT 3 14 Feb 21:43:05 21:45:52 18° 16° (NNE) 21:48:39 437.485
ZACube-1 14 Feb 21:43:06 21:46:55 34° 264° (W) 21:50:44 437.345
FUNcube-1 14 Feb 21:49:20 21:53:02 31° 265° (W) 21:56:46 145.935
Cosmos 2499 14 Feb 21:56:03 22:03:42 41° 275° (W) 22:10:49 435.465 / 435.565
AAUSAT CUBESAT 2 14 Feb 21:58:25 21:59:31 11° 276° (W) 22:00:38 437.432
STRAND 1 14 Feb 22:04:03 22:06:51 15° 311° (NW) 22:09:38 437.568
UKube-1 14 Feb 22:11:38 22:15:40 39° 65° (ENE) 22:19:43 .
VELOX 1 14 Feb 22:12:06 22:16:18 42° 66° (ENE) 22:20:32 145.980
SPROUT 14 Feb 22:12:44 22:15:31 17° 57° (ENE) 22:18:18 437.525
Oscar 11 14 Feb 22:15:08 22:17:51 16° 272° (W) 22:20:34 145.826/435.025
BEESAT 2 14 Feb 22:17:31 22:20:32 20° 19° (NNE) 22:23:33 435.950
RS-15 14 Feb 22:23:01 22:31:09 22° 263° (W) 22:39:24 29.354- 29.394
UNISAT 6 14 Feb 22:25:06 22:29:04 33° 96° (E) 22:33:05 437.425
DELFI C3 14 Feb 22:25:49 22:28:40 19° 270° (W) 22:31:32 145.870
AISAT 14 Feb 22:29:35 22:33:59 62° 71° (ENE) 22:38:24 437.250
CUBEBUG 1 14 Feb 22:32:57 22:37:16 54° 69° (ENE) 22:41:36 437.445
GONETS M04 14 Feb 22:33:12 22:37:41 15° 293° (WNW) 22:42:11
DX 1 14 Feb 22:33:23 22:37:45 69° 70° (ENE) 22:42:07 434.975-435.025
AIST 1 14 Feb 22:35:35 22:38:32 18° 276° (W) 22:41:29
HUMSAT D 14 Feb 22:49:59 22:53:15 23° 268° (W) 22:56:35 437.325/437.525
50 SAT 14 Feb 23:03:58 23:07:36 53° 259° (W) 23:11:18 437.505
POLYITAN 1 14 Feb 23:07:26 23:10:52 24° 93° (E) 23:14:17 437.675
QB50P2 14 Feb 23:07:45 23:11:15 24° 93° (E) 23:14:43 145.880/145.840
ANTELSAT 14 Feb 23:09:49 23:14:13 82° 105° (ESE) 23:18:41 437.575/2403.000
ESTCUBE 1 14 Feb 23:14:06 23:18:33 52° 260° (W) 23:23:02 437.505/2401.250
TIGRISAT 14 Feb 23:14:44 23:19:07 87° 105° (ESE) 23:23:34 435.000
AIST 2 14 Feb 23:18:50 23:21:41 17° 11° (NNE) 23:24:32 435.215
BEESAT 3 14 Feb 23:20:40 23:24:32 46° 38° (NE) 23:28:22 437.485
Cosmos 2491 14 Feb 23:28:27 23:34:31 20° 46° (NE) 23:40:34 435.465 / 435.565
TISAT 1 14 Feb 23:34:22 23:38:14 36° 66° (ENE) 23:42:06 437.305
DUCHIFAT 1 14 Feb 23:35:39 23:39:37 39° 98° (E) 23:43:32 145.980
POPSAT HIP 1 14 Feb 23:35:43 23:39:44 41° 98° (E) 23:43:43 437.405
NANOSAT C BR1 14 Feb 23:36:48 23:40:48 41° 98° (E) 23:44:47 145.865
ITUPSAT 1 14 Feb 23:44:38 23:47:24 15° 52° (NE) 23:50:11 437.325
CUSAT 1 14 Feb 23:45:18 23:50:39 20° 79° (E) 23:55:42 437.405
SPROUT 14 Feb 23:46:42 23:51:00 78° 255° (WSW) 23:55:19 437.525
QB50P1 14 Feb 23:47:45 23:51:54 55° 101° (E) 23:56:01 145.935-145.965
UKube-1 14 Feb 23:48:00 23:51:50 30° 265° (W) 23:55:41 .
BEESAT 14 Feb 23:49:02 23:52:00 17° 53° (NE) 23:55:00 436.000
VELOX 1 14 Feb 23:49:03 23:52:56 29° 266° (W) 23:56:50 145.980
BEESAT 2 14 Feb 23:55:12 23:59:12 59° 42° (NE) 00:03:09 435.950
UNISAT 6 15 Feb 00:01:51 00:05:51 36° 295° (WNW) 00:09:53 437.425
AISAT 15 Feb 00:07:37 00:10:53 20° 269° (W) 00:14:11 437.250
CUBEBUG 1 15 Feb 00:10:26 00:13:53 22° 268° (W) 00:17:22 437.445
DX 1 15 Feb 00:11:29 00:14:25 17° 270° (W) 00:17:22 434.975-435.025
BUGSAT 1 15 Feb 00:12:58 00:16:55 49° 100° (E) 00:20:50 437.445
YUBILEINY 15 Feb 00:33:03 00:33:52 10° 61° (ENE) 00:34:41 435.215
